If you wish to contribute or participate in the discussions about articles you are invited to join SKYbrary as a registered user

 Actions

Nakashibetsu Airport

From SKYbrary Wiki

RJCN
Airport
ICAO: RJCN – IATA: SHB
Summary
Name Nakashibetsu Airport
Region Asia and Pacific
Territory Japan JP.gif
Location Nakashibetsu, Hokkaidō
Serving Nakashibetsu
Elevation 65.227 m
214 ft65.227 m
Coordinates 43° 34' 23.76" N, 144° 57' 24.29" E
Runways
Designator Length Width Surface ROPS
8/26 1999 m6,558.399 ft
46 m150.919 ft
ASP /


METAR
Observation RJCN 210700Z 08007KT 9999 FEW020 SCT035 M02/M08 Q1028
Station Nakashibetsu Airport
Date/Time 21 February 2020 07:00:00
Wind direction 80°
Wind speed 07 kts
Lowest cloud amount few clouds
Temperature
Dew point
Humidity 63%
QNH 1028 hPa
Weather condition n/a

Airport located 2 nm3,704 m
3.704 km
12,152.231 ft
from Nakashibetsu, Hokkaidō, Japan.

Climatology

Humid continental climate (Köppen climate classification Dfb)

Maps

Terrain

Loading map...

Airport Layout

Loading map...


Accidents & Serious Incidents at or in vicinity of RJCN

None on SKYbrary